TimeMST,TemperatureF,Dew PointF,Humidity,Sea Level PressureIn,VisibilityMPH,Wind Direction,Wind SpeedMPH,Gust SpeedMPH,PrecipitationIn,Events,Conditions,WindDirDegrees,DateUTC
12:51 AM,-2.9,-6.0,87,30.59,-9999.0,East,4.6,-,N/A,,Unknown,90,2013-01-19 07:51:00
1:51 AM,-2.0,-6.0,83,30.57,-9999.0,Calm,Calm,-,N/A,,Unknown,0,2013-01-19 08:51:00
2:51 AM,-4.0,-8.0,83,30.57,-9999.0,Calm,Calm,-,N/A,,Unknown,0,2013-01-19 09:51:00
3:51 AM,-4.0,-9.0,79,30.56,-9999.0,Calm,Calm,-,N/A,,Unknown,0,2013-01-19 10:51:00
4:51 AM,-6.0,-11.0,79,30.63,-9999.0,Calm,Calm,-,N/A,,Unknown,0,2013-01-19 11:51:00
5:51 AM,-7.1,-11.9,79,30.66,-9999.0,Calm,Calm,-,N/A,,Unknown,0,2013-01-19 12:51:00
6:51 AM,-8.0,-13.0,79,30.67,-9999.0,Calm,Calm,-,N/A,,Unknown,0,2013-01-19 13:51:00
7:51 AM,-9.0,-14.1,79,30.70,-9999.0,Calm,Calm,-,N/A,,Unknown,0,2013-01-19 14:51:00
8:51 AM,-6.0,-11.9,75,30.73,-9999.0,East,4.6,-,N/A,,Unknown,80,2013-01-19 15:51:00
9:51 AM,-2.0,-6.0,83,30.71,-9999.0,Calm,Calm,-,N/A,,Unknown,0,2013-01-19 16:51:00
10:51 AM,1.0,-2.9,83,30.71,-9999.0,Calm,Calm,-,N/A,,Unknown,0,2013-01-19 17:51:00
11:51 AM,5.0,-0.9,76,30.67,-9999.0,Calm,Calm,-,N/A,,Unknown,0,2013-01-19 18:51:00
12:51 PM,15.1,3.9,61,30.61,-9999.0,Calm,Calm,-,N/A,,Unknown,0,2013-01-19 19:51:00
1:51 PM,21.9,8.1,55,30.55,-9999.0,Calm,Calm,-,N/A,,Unknown,0,2013-01-19 20:51:00
2:51 PM,19.9,8.1,60,30.55,-9999.0,Calm,Calm,-,N/A,,Unknown,0,2013-01-19 21:51:00
3:51 PM,25.0,9.0,51,30.51,-9999.0,Calm,Calm,-,N/A,,Unknown,0,2013-01-19 22:51:00
4:51 PM,19.0,8.1,62,30.55,-9999.0,Calm,Calm,-,N/A,,Unknown,0,2013-01-19 23:51:00
5:51 PM,14.0,9.0,80,30.58,-9999.0,South,4.6,-,N/A,,Unknown,180,2013-01-20 00:51:00
6:51 PM,9.0,6.1,88,30.61,-9999.0,SSE,3.5,-,N/A,,Unknown,150,2013-01-20 01:51:00
7:51 PM,12.9,6.1,74,30.62,-9999.0,South,5.8,-,N/A,,Unknown,170,2013-01-20 02:51:00
8:51 PM,3.9,1.9,91,30.67,-9999.0,SSE,5.8,-,N/A,,Unknown,160,2013-01-20 03:51:00
9:51 PM,1.9,-0.0,91,30.67,-9999.0,Calm,Calm,-,N/A,,Unknown,0,2013-01-20 04:51:00
10:51 PM,1.0,-2.9,83,30.67,-9999.0,Calm,Calm,-,N/A,,Unknown,0,2013-01-20 05:51:00
11:51 PM,-2.0,-5.1,87,30.66,-9999.0,East,3.5,-,N/A,,Unknown,100,2013-01-20 06:51:00